Weather observations for the past three days for
Torrance, Zamperini Field Airport
| Date | Time (pdt) | Wind (kph) | Vis. (km) | Weather | Sky Cond. | Temperature (ºC) | Relative Humidity | Wind Chill (°C) | Heat Index (°C) | Pressure | Precipitation (cm) | ||||||
|---|---|---|---|---|---|---|---|---|---|---|---|---|---|---|---|---|---|
| Air | Dwpt | 6 hour | altimeter (cm) | sea level (mb) | 1 hr | 3 hr | 6 hr | ||||||||||
| Max. | Min. | ||||||||||||||||
| 03 | 13:59 | W 30 | 16.09 | Mostly Cloudy | BKN037 | 19 | 9 | 52% | 76.05 | 0.0 | |||||||
| 03 | 12:47 | W 20 | 16.09 | Mostly Cloudy | FEW031 BKN037 | 18 | 9 | 56% | 76.07 | 0.0 | |||||||
| 03 | 11:56 | W 20 | 16.09 | Mostly Cloudy | FEW024 BKN031 | 19 | 9 | 52% | 76.12 | 0.0 | |||||||
| 03 | 10:47 | SW 15 | 16.09 | Overcast | OVC027 | 18 | 9 | 56% | 76.12 | 0.0 | |||||||
| 03 | 09:57 | S 9 | 16.09 | Overcast | SCT017 OVC038 | 18 | 10 | 60% | 76.1 | 0.0 | |||||||
| 03 | 08:56 | SW 9 | 16.09 | Overcast | SCT017 OVC025 | 17 | 11 | 68% | 76.07 | 0.0 | |||||||
| 03 | 07:54 | Calm | 16.09 | Overcast | SCT018 OVC025 | 16 | 12 | 77% | 76.05 | 0.0 | |||||||
| 03 | 06:52 | W 7 | 16.09 | Overcast | SCT015 OVC025 | 15 | 12 | 82% | 76 | 0.0 | |||||||
| 02 | 19:50 | SW 19 | 16.09 | Partly Cloudy | SCT010 | 15 | 13 | 88% | 75.87 | 0.0 | |||||||
| 02 | 18:47 | W 17 | 16.09 | Partly Cloudy | SCT013 | 17 | 13 | 77% | 75.82 | 0.0 | |||||||
| 02 | 17:50 | W 24 | 16.09 | A Few Clouds | FEW250 | 18 | 13 | 73% | 75.79 | 0.0 | |||||||
| 02 | 16:47 | W 24 | 16.09 | A Few Clouds | FEW250 | 18 | 13 | 73% | 75.82 | 0.0 | |||||||
| 02 | 15:55 | W 24 | 16.09 | Partly Cloudy | SCT020 SCT220 | 18 | 13 | 73% | 75.84 | 0.0 | |||||||
| 02 | 14:50 | W 33 | 16.09 | Mostly Cloudy and Breezy | SCT015 BKN220 | 19 | 13 | 68% | 75.97 | 0.0 | |||||||
| 02 | 13:47 | SW 24 G 35 | 16.09 | Mostly Cloudy with Haze | BKN015 | 20 | 14 | 69% | 76.02 | 0.0 | |||||||
| 02 | 12:48 | W 19 | 16.09 | Mostly Cloudy | BKN015 | 19 | 14 | 73% | 76.05 | 0.0 | |||||||
| 02 | 11:55 | W 15 | 9.66 | Overcast with Haze | OVC015 | 19 | 14 | 73% | 76.1 | 0.0 | |||||||
| 02 | 10:52 | W 6 | 6.44 | Overcast with Haze | OVC008 | 17 | 14 | 83% | 76.12 | 0.0 | |||||||
| 02 | 09:47 | Calm | 6.44 | Overcast with Haze | OVC008 | 17 | 13 | 77% | 76.15 | 0.0 | |||||||
| 02 | 08:52 | Calm | 6.44 | Overcast with Haze | OVC008 | 16 | 14 | 88% | 76.15 | 0.0 | |||||||
| 02 | 07:47 | Calm | 6.44 | Overcast with Haze | OVC008 | 16 | 13 | 83% | 76.12 | 0.0 | |||||||
| 02 | 07:00 | SW 7 | 9.66 | Overcast | OVC008 | 15 | 13 | 88% | 76.12 | 0.0 | |||||||
| 01 | 19:47 | W 17 | 16.09 | Mostly Cloudy | BKN008 | 16 | 14 | 88% | 75.97 | 0.0 | |||||||
| 01 | 18:49 | W 31 | 16.09 | Partly Cloudy | SCT013 | 17 | 14 | 83% | 75.92 | 0.0 | |||||||
| 01 | 16:52 | W 28 | 16.09 | Partly Cloudy | SCT012 SCT060 | 19 | 14 | 73% | 75.9 | 0.0 | |||||||
| 01 | 14:47 | W 20 | 16.09 | Clear | SKC | 22 | 14 | 61% | 75.97 | 0.0 | |||||||
| 01 | 13:49 | W 20 | 16.09 | Clear | SKC | 22 | 14 | 61% | 76.02 | 0.0 | |||||||
| 01 | 12:47 | E 7 | 16.09 | A Few Clouds | FEW020 | 21 | 13 | 60% | 76.05 | 0.0 | |||||||
| 01 | 11:50 | NE 9 | 12.87 | Partly Cloudy | SCT020 | 19 | 13 | 68% | 76.12 | 0.0 | |||||||
| 01 | 10:54 | E 7 | 12.87 | Overcast | OVC019 | 19 | 13 | 68% | 76.15 | 0.0 | |||||||
| 01 | 09:47 | E 9 | 12.87 | Overcast | OVC019 | 17 | 13 | 77% | 76.17 | 0.0 | |||||||
| 01 | 08:47 | E 13 | 14.48 | Overcast | OVC019 | 17 | 13 | 77% | 76.15 | 0.0 | |||||||
| 01 | 07:55 | E 9 | 12.87 | Overcast | OVC019 | 17 | 13 | 77% | 76.12 | 0.0 | |||||||
| 01 | 06:57 | NE 7 | 12.87 | Overcast | OVC017 | 17 | 13 | 77% | 76.1 | 0.0 | |||||||
| 30 | 19:50 | SW 9 | 16.09 | A Few Clouds | FEW010 FEW040 | 17 | 13 | 77% | 75.9 | 0.0 | |||||||
| 30 | 18:59 | SW 6 | 16.09 | Partly Cloudy | FEW010 SCT040 | 18 | 13 | 73% | 75.84 | 0.0 | |||||||
| 30 | 17:53 | W 17 | 16.09 | Partly Cloudy | SCT010 | 18 | 13 | 73% | 75.84 | 0.0 | |||||||
| 30 | 15:48 | W 17 | 16.09 | A Few Clouds | FEW010 FEW050 | 21 | 13 | 60% | 75.82 | 0.0 | |||||||
| 30 | 14:53 | SW 20 | 16.09 | A Few Clouds | FEW010 FEW030 | 21 | 13 | 60% | 75.87 | 0.0 | |||||||
| Date | Time (pdt) | Wind (kph) | Vis. (km) | Weather | Sky Cond. | Air | Dwpt | Max. | Min. | Relative Humidity | Wind Chill (°C) | Heat Index (°C) | altimeter (cm) | sea level (mb) | 1 hr | 3 hr | 6 hr |
| 6 hour | |||||||||||||||||
| Temperature (ºC) | Pressure | Precipitation (cm) | |||||||||||||||